| time (UTC) | temp F | wind direction | speed MPH | gust MPH | rain 1hr in | rain 24hr in | rain mn in | humidity % | barometer mb |
| 20260509063116 | 45 | 167 | 2.0 | 0.0 | 0.00 | 0.00 | 0.00 | 57 | 982.9 |
| 20260509061559 | 44 | 162 | 2.0 | 0.0 | 0.00 | 0.00 | 0.00 | 57 | 982.9 |
| 20260509060144 | 45 | 146 | 1.0 | 0.0 | 0.00 | 0.00 | 0.00 | 57 | 982.9 |
| 20260509054559 | 45 | 119 | 2.0 | 0.0 | 0.00 | 0.00 | 0.00 | 55 | 984.4 |
| 20260509053114 | 45 | 124 | 2.0 | 0.0 | 0.00 | 0.00 | 0.00 | 55 | 983.9 |
| 20260509051557 | 45 | 117 | 1.0 | 0.0 | 0.00 | 0.00 | 0.00 | 55 | 983.9 |
| 20260509050131 | 45 | 135 | 2.0 | 0.0 | 0.00 | 0.00 | 0.00 | 55 | 983.9 |
| 20260509044558 | 46 | 153 | 1.0 | 0.0 | 0.00 | 0.00 | 0.00 | 57 | 984.8 |
| 20260509043114 | 46 | 169 | 1.0 | 0.0 | 0.00 | 0.00 | 0.00 | 52 | 983.5 |
| 20260509041558 | 47 | 158 | 3.0 | 0.0 | 0.00 | 0.00 | 0.00 | 52 | 983.6 |
| 20260509040135 | 47 | 160 | 3.0 | 0.0 | 0.00 | 0.00 | 0.00 | 52 | 983.6 |
| 20260509034558 | 48 | 162 | 2.0 | 0.0 | 0.00 | 0.00 | 0.00 | 50 | 984.2 |
| 20260509033113 | 48 | 145 | 2.0 | 0.0 | 0.00 | 0.00 | 0.00 | 41 | 984.9 |
| 20260509031558 | 48 | 147 | 3.0 | 0.0 | 0.00 | 0.00 | 0.00 | 41 | 984.9 |
| 20260509030131 | 49 | 159 | 4.0 | 0.0 | 0.00 | 0.00 | 0.00 | 41 | 984.9 |
| 20260509024557 | 50 | 176 | 3.0 | 0.0 | 0.00 | 0.00 | 0.00 | 37 | 985.5 |
| 20260509023116 | 50 | 186 | 4.0 | 0.0 | 0.00 | 0.00 | 0.00 | 36 | 985.2 |
| 20260509021558 | 50 | 196 | 4.0 | 0.0 | 0.00 | 0.00 | 0.00 | 36 | 985.2 |
| 20260509020127 | 51 | 197 | 4.0 | 0.0 | 0.00 | 0.00 | 0.00 | 36 | 985.2 |
| 20260509014557 | 52 | 211 | 3.0 | 0.0 | 0.00 | 0.00 | 0.00 | 33 | 985.2 |
| 20260509013111 | 52 | 230 | 3.0 | 0.0 | 0.00 | 0.00 | 0.00 | 33 | 985.2 |
| 20260509011557 | 53 | 243 | 4.0 | 0.0 | 0.00 | 0.00 | 0.00 | 33 | 985.2 |
| 20260509010124 | 54 | 247 | 4.0 | 0.0 | 0.00 | 0.00 | 0.00 | 33 | 985.2 |
| 20260509004555 | 55 | 252 | 4.0 | 0.0 | 0.00 | 0.00 | 0.00 | 28 | 985.0 |
| 20260509003115 | 56 | 250 | 4.0 | 0.0 | 0.00 | 0.00 | 0.00 | 28 | 986.2 |
| 20260509001555 | 57 | 259 | 4.0 | 0.0 | 0.00 | 0.00 | 0.00 | 28 | 986.2 |
| 20260509000137 | 58 | 263 | 5.0 | 0.0 | 0.00 | 0.00 | 0.00 | 28 | 986.2 |
| 20260508234557 | 59 | 265 | 7.0 | 0.0 | 0.00 | 0.00 | 0.00 | 23 | 985.5 |
| 20260508233117 | 60 | 267 | 8.0 | 0.0 | 0.00 | 0.00 | 0.00 | 23 | 985.8 |
| 20260508231559 | 60 | 264 | 8.0 | 0.0 | 0.00 | 0.00 | 0.00 | 23 | 985.8 |
| 20260508230123 | 61 | 267 | 9.0 | 0.0 | 0.00 | 0.00 | 0.00 | 23 | 985.8 |
| 20260508224559 | 61 | 266 | 9.0 | 0.0 | 0.00 | 0.00 | 0.00 | 22 | 986.0 |
| 20260508223117 | 61 | 265 | 10.0 | 0.0 | 0.00 | 0.00 | 0.00 | 22 | 986.7 |
| 20260508221600 | 61 | 264 | 10.0 | 0.0 | 0.00 | 0.00 | 0.00 | 22 | 986.7 |
| 20260508220125 | 62 | 263 | 10.0 | 0.0 | 0.00 | 0.00 | 0.00 | 22 | 986.7 |
| 20260508214559 | 62 | 260 | 11.0 | 0.0 | 0.00 | 0.00 | 0.00 | 21 | 987.2 |
| 20260508213117 | 62 | 257 | 11.0 | 0.0 | 0.00 | 0.00 | 0.00 | 22 | 986.8 |
| 20260508211559 | 62 | 250 | 10.0 | 0.0 | 0.00 | 0.00 | 0.00 | 22 | 986.8 |
| 20260508210129 | 62 | 250 | 10.0 | 0.0 | 0.00 | 0.00 | 0.00 | 22 | 986.8 |
| 20260508204600 | 62 | 250 | 11.0 | 0.0 | 0.00 | 0.00 | 0.00 | 24 | 986.8 |
| 20260508203118 | 62 | 249 | 11.0 | 0.0 | 0.00 | 0.00 | 0.00 | 20 | 986.7 |
| 20260508201600 | 63 | 245 | 9.0 | 0.0 | 0.00 | 0.00 | 0.00 | 20 | 986.7 |
| 20260508200125 | 63 | 241 | 10.0 | 0.0 | 0.00 | 0.00 | 0.00 | 20 | 986.7 |
| 20260508194600 | 63 | 239 | 10.0 | 0.0 | 0.00 | 0.00 | 0.00 | 22 | 987.1 |
| 20260508193114 | 63 | 239 | 9.0 | 0.0 | 0.00 | 0.00 | 0.00 | 22 | 987.1 |
| 20260508191559 | 63 | 248 | 7.0 | 0.0 | 0.00 | 0.00 | 0.00 | 22 | 987.1 |
| 20260508190123 | 63 | 252 | 8.0 | 0.0 | 0.00 | 0.00 | 0.00 | 22 | 987.1 |
| 20260508184559 | 63 | 249 | 8.0 | 0.0 | 0.00 | 0.00 | 0.00 | 26 | 987.4 |
| 20260508183118 | 62 | 241 | 8.0 | 0.0 | 0.00 | 0.00 | 0.00 | 25 | 987.1 |
| 20260508181559 | 62 | 244 | 9.0 | 0.0 | 0.00 | 0.00 | 0.00 | 25 | 987.1 |
| 20260508180130 | 62 | 243 | 9.0 | 0.0 | 0.00 | 0.00 | 0.00 | 25 | 987.1 |
| 20260508174600 | 61 | 240 | 10.0 | 0.0 | 0.00 | 0.00 | 0.00 | 32 | 988.1 |
| 20260508173118 | 61 | 243 | 9.0 | 0.0 | 0.00 | 0.00 | 0.00 | 32 | 988.1 |
| 20260508171559 | 60 | 243 | 9.0 | 0.0 | 0.00 | 0.00 | 0.00 | 32 | 988.1 |
| 20260508170125 | 60 | 246 | 8.0 | 0.0 | 0.00 | 0.00 | 0.00 | 32 | 988.1 |
| 20260508164559 | 59 | 245 | 8.0 | 0.0 | 0.00 | 0.00 | 0.00 | 36 | 988.5 |
| 20260508163118 | 59 | 233 | 8.0 | 0.0 | 0.00 | 0.00 | 0.00 | 36 | 988.7 |
| 20260508161559 | 57 | 226 | 9.0 | 0.0 | 0.00 | 0.00 | 0.00 | 36 | 988.7 |
| 20260508160130 | 57 | 222 | 8.0 | 0.0 | 0.00 | 0.00 | 0.00 | 36 | 988.7 |
| 20260508154600 | 56 | 216 | 8.0 | 0.0 | 0.00 | 0.00 | 0.00 | 43 | 989.8 |
| 20260508153120 | 55 | 204 | 7.0 | 0.0 | 0.00 | 0.00 | 0.00 | 44 | 988.5 |
| 20260508151559 | 54 | 198 | 7.0 | 0.0 | 0.00 | 0.00 | 0.00 | 44 | 988.5 |
| 20260508150129 | 53 | 199 | 6.0 | 0.0 | 0.00 | 0.00 | 0.00 | 44 | 988.5 |
| 20260508144600 | 53 | 198 | 5.0 | 0.0 | 0.00 | 0.00 | 0.00 | 49 | 988.9 |
| 20260508143117 | 51 | 201 | 5.0 | 0.0 | 0.00 | 0.00 | 0.00 | 66 | 989.1 |
| 20260508141600 | 50 | 200 | 4.0 | 0.0 | 0.00 | 0.00 | 0.00 | 66 | 989.1 |
| 20260508140138 | 49 | 196 | 4.0 | 0.0 | 0.00 | 0.00 | 0.00 | 65 | 988.9 |
| 20260508134559 | 48 | 190 | 4.0 | 0.0 | 0.00 | 0.00 | 0.00 | 77 | 988.7 |
| 20260508133114 | 47 | 197 | 4.0 | 0.0 | 0.00 | 0.00 | 0.00 | 77 | 988.7 |
| 20260508131559 | 45 | 194 | 4.0 | 0.0 | 0.00 | 0.00 | 0.00 | 77 | 988.7 |
| 20260508130133 | 43 | 186 | 4.0 | 0.0 | 0.00 | 0.00 | 0.00 | 77 | 988.7 |
| 20260508124600 | 42 | 180 | 3.0 | 0.0 | 0.00 | 0.00 | 0.00 | 88 | 988.2 |
| 20260508123118 | 41 | 190 | 2.0 | 0.0 | 0.00 | 0.00 | 0.00 | 84 | 988.6 |
| 20260508121559 | 40 | 180 | 1.0 | 0.0 | 0.00 | 0.00 | 0.00 | 84 | 988.6 |
| 20260508120146 | 39 | 135 | 0.0 | 0.0 | 0.00 | 0.00 | 0.00 | 84 | 988.6 |
| 20260508114559 | 37 | 90 | 0.0 | 0.0 | 0.00 | 0.00 | 0.00 | 85 | 988.1 |
| 20260508113121 | 36 | 124 | 0.0 | 0.0 | 0.00 | 0.00 | 0.00 | 82 | 988.9 |
| 20260508111559 | 37 | 149 | 1.0 | 0.0 | 0.00 | 0.00 | 0.00 | 82 | 988.9 |
| 20260508110125 | 36 | 157 | 1.0 | 0.0 | 0.00 | 0.00 | 0.00 | 82 | 988.9 |
| 20260508104601 | 35 | 135 | 0.0 | 0.0 | 0.00 | 0.00 | 0.00 | 81 | 988.2 |
| 20260508103119 | 36 | 90 | 0.0 | 0.0 | 0.00 | 0.00 | 0.00 | 80 | 989.0 |
| 20260508101602 | 36 | 117 | 0.0 | 0.0 | 0.00 | 0.00 | 0.00 | 80 | 989.1 |
| 20260508100126 | 37 | 124 | 0.0 | 0.0 | 0.00 | 0.00 | 0.00 | 80 | 989.1 |
| 20260508094600 | 37 | 104 | 0.0 | 0.0 | 0.00 | 0.00 | 0.00 | 80 | 988.3 |
| 20260508093115 | 37 | 90 | 0.0 | 0.0 | 0.00 | 0.00 | 0.00 | 78 | 989.2 |
| 20260508091601 | 37 | 135 | 0.0 | 0.0 | 0.00 | 0.00 | 0.00 | 78 | 989.2 |
| 20260508090130 | 38 | 130 | 1.0 | 0.0 | 0.00 | 0.00 | 0.00 | 78 | 989.2 |
| 20260508084601 | 38 | 98 | 1.0 | 0.0 | 0.00 | 0.00 | 0.00 | 79 | 988.7 |
| 20260508083119 | 38 | 81 | 1.0 | 0.0 | 0.00 | 0.00 | 0.00 | 79 | 988.4 |
| 20260508081600 | 38 | 164 | 1.0 | 0.0 | 0.00 | 0.00 | 0.00 | 79 | 988.4 |
| 20260508080132 | 39 | 172 | 1.0 | 0.0 | 0.00 | 0.00 | 0.00 | 79 | 988.4 |
| 20260508074602 | 39 | 189 | 1.0 | 0.0 | 0.00 | 0.00 | 0.00 | 83 | 989.1 |
| 20260508073120 | 39 | 217 | 1.0 | 0.0 | 0.00 | 0.00 | 0.00 | 83 | 989.1 |
| 20260508071600 | 39 | 191 | 2.0 | 0.0 | 0.00 | 0.00 | 0.00 | 83 | 989.1 |
| 20260508070132 | 39 | 189 | 2.0 | 0.0 | 0.00 | 0.00 | 0.00 | 83 | 989.1 |
| 20260508064600 | 40 | 180 | 2.0 | 0.0 | 0.00 | 0.00 | 0.00 | 79 | 989.0 |